ARG1547 SACO-SABE

Flight info

Callsign ARG1547
Flight time 1h 9m
Altitude 35000
Route UTRAX1C UTRAX UW24 SNT SNT8Q
Aircraft B738/M-SDE2E3FGHIRWXY/LB1

Departure

Time 2026-05-04 22:03
Airport Ingeniero Aeronáutico Ambrosio L.V. Taravella International Airport (SACO)

Arrival

Time 2026-05-04 23:13
Airport Aeroparque Jorge Newbery (SABE)
Time Latitude Longitude Altitude Speed Heading
2026-05-04 21:40 -31.31551 -64.21177 1613 ft 0 kts 267°
2026-05-04 21:50 -31.31551 -64.21176 1613 ft 0 kts 267°
2026-05-04 21:55 -31.31552 -64.21165 1613 ft 2 kts 293°
2026-05-04 21:55 -31.31553 -64.21148 1613 ft 2 kts 264°
2026-05-04 21:55 -31.31553 -64.21131 1613 ft 2 kts 271°
2026-05-04 21:55 -31.31553 -64.21115 1613 ft 0 kts 269°
2026-05-04 21:56 -31.31552 -64.21104 1613 ft 2 kts 234°
2026-05-04 21:56 -31.31541 -64.21095 1613 ft 0 kts 185°
2026-05-04 21:56 -31.31535 -64.21095 1613 ft 1 kts 179°
2026-05-04 21:56 -31.31533 -64.21095 1613 ft 0 kts 180°
2026-05-04 21:59 -31.31540 -64.21095 1613 ft 4 kts 178°
2026-05-04 21:59 -31.31614 -64.21098 1613 ft 15 kts 183°
2026-05-04 21:59 -31.31711 -64.21095 1613 ft 12 kts 173°
2026-05-04 21:59 -31.31765 -64.21072 1613 ft 6 kts 149°
2026-05-04 22:00 -31.31794 -64.21049 1613 ft 3 kts 149°
2026-05-04 22:00 -31.31809 -64.21042 1613 ft 2 kts 161°
2026-05-04 22:00 -31.31834 -64.21033 1613 ft 4 kts 166°
2026-05-04 22:00 -31.31891 -64.21027 1613 ft 12 kts 178°
2026-05-04 22:01 -31.32002 -64.21026 1613 ft 18 kts 178°
2026-05-04 22:01 -31.32135 -64.21024 1613 ft 19 kts 180°
2026-05-04 22:01 -31.32274 -64.21022 1613 ft 19 kts 179°
2026-05-04 22:01 -31.32391 -64.21009 1613 ft 14 kts 157°
2026-05-04 22:02 -31.32442 -64.20927 1613 ft 11 kts 89°
2026-05-04 22:02 -31.32405 -64.20846 1613 ft 11 kts 45°
2026-05-04 22:02 -31.32334 -64.20813 1613 ft 11 kts 358°
2026-05-04 22:02 -31.32128 -64.20816 1613 ft 62 kts 359°
2026-05-04 22:03 -31.31441 -64.20829 1613 ft 130 kts 359°
2026-05-04 22:03 -31.30364 -64.20850 1680 ft 171 kts 358°
2026-05-04 22:03 -31.29164 -64.20835 2100 ft 177 kts
2026-05-04 22:03 -31.27959 -64.20655 2734 ft 176 kts 14°
2026-05-04 22:04 -31.26829 -64.20137 3295 ft 175 kts 26°
2026-05-04 22:04 -31.25733 -64.19435 3563 ft 186 kts 30°
2026-05-04 22:04 -31.24754 -64.18384 3739 ft 200 kts 55°
2026-05-04 22:04 -31.24198 -64.16891 4129 ft 204 kts 76°
2026-05-04 22:05 -31.24058 -64.15248 4531 ft 207 kts 89°
2026-05-04 22:05 -31.24108 -64.13562 4976 ft 212 kts 93°
2026-05-04 22:05 -31.24340 -64.11769 5112 ft 234 kts 104°
2026-05-04 22:05 -31.25039 -64.09991 5290 ft 252 kts 127°
2026-05-04 22:06 -31.26234 -64.08432 5685 ft 263 kts 134°
2026-05-04 22:06 -31.27550 -64.06907 6288 ft 269 kts 135°
2026-05-04 22:06 -31.28929 -64.05329 6673 ft 285 kts 135°
2026-05-04 22:06 -31.30351 -64.03704 7393 ft 288 kts 135°
2026-05-04 22:07 -31.31772 -64.02081 8027 ft 293 kts 135°
2026-05-04 22:07 -31.33240 -64.00404 8729 ft 295 kts 135°
2026-05-04 22:07 -31.34704 -63.98728 9402 ft 299 kts 135°
2026-05-04 22:07 -31.36199 -63.97018 10079 ft 302 kts 135°
2026-05-04 22:08 -31.37717 -63.95277 10500 ft 315 kts 135°
2026-05-04 22:08 -31.39340 -63.93410 10589 ft 339 kts 135°
2026-05-04 22:08 -31.41050 -63.91438 11101 ft 347 kts 135°
2026-05-04 22:08 -31.42788 -63.89430 11676 ft 353 kts 135°
2026-05-04 22:09 -31.44523 -63.87424 12345 ft 356 kts 135°
2026-05-04 22:09 -31.46294 -63.85375 12940 ft 360 kts 135°
2026-05-04 22:09 -31.48105 -63.83280 13582 ft 363 kts 135°
2026-05-04 22:09 -31.49906 -63.81196 14167 ft 367 kts 135°
2026-05-04 22:10 -31.51734 -63.79081 14757 ft 371 kts 135°
2026-05-04 22:10 -31.53570 -63.76957 15332 ft 374 kts 135°
2026-05-04 22:10 -31.55431 -63.74804 15898 ft 378 kts 135°
2026-05-04 22:10 -31.57297 -63.72646 16443 ft 381 kts 135°
2026-05-04 22:11 -31.59196 -63.70451 16991 ft 385 kts 136°
2026-05-04 22:11 -31.61087 -63.68264 17515 ft 388 kts 136°
2026-05-04 22:11 -31.63027 -63.66021 18038 ft 392 kts 136°
2026-05-04 22:11 -31.64975 -63.63770 18555 ft 395 kts 136°
2026-05-04 22:12 -31.66917 -63.61526 19047 ft 398 kts 136°
2026-05-04 22:12 -31.68911 -63.59223 19554 ft 402 kts 136°
2026-05-04 22:12 -31.70903 -63.56926 20050 ft 405 kts 136°
2026-05-04 22:12 -31.72895 -63.54626 20525 ft 408 kts 136°
2026-05-04 22:13 -31.74965 -63.52237 21002 ft 412 kts 136°
2026-05-04 22:13 -31.76991 -63.49898 21460 ft 415 kts 136°
2026-05-04 22:13 -31.79055 -63.47516 21912 ft 418 kts 136°
2026-05-04 22:13 -31.81143 -63.45106 22362 ft 421 kts 136°
2026-05-04 22:14 -31.83253 -63.42670 22797 ft 424 kts 136°
2026-05-04 22:14 -31.85350 -63.40250 23227 ft 427 kts 136°
2026-05-04 22:14 -31.87469 -63.37805 23644 ft 430 kts 136°
2026-05-04 22:14 -31.89594 -63.35330 24055 ft 433 kts 134°
2026-05-04 22:15 -31.91517 -63.32641 24448 ft 436 kts 128°
2026-05-04 22:15 -31.93375 -63.29797 24877 ft 438 kts 127°
2026-05-04 22:15 -31.95245 -63.26925 25203 ft 442 kts 128°
2026-05-04 22:15 -31.97112 -63.24083 25628 ft 444 kts 128°
2026-05-04 22:16 -31.99009 -63.21214 25987 ft 447 kts 128°
2026-05-04 22:16 -32.00911 -63.18350 26325 ft 450 kts 128°
2026-05-04 22:16 -32.02851 -63.15440 26728 ft 452 kts 128°
2026-05-04 22:16 -32.04807 -63.12512 27051 ft 455 kts 129°
2026-05-04 22:17 -32.06775 -63.09570 27405 ft 457 kts 129°
2026-05-04 22:17 -32.08744 -63.06629 27759 ft 459 kts 129°
2026-05-04 22:17 -32.10725 -63.03669 28072 ft 462 kts 129°
2026-05-04 22:17 -32.12709 -63.00703 28405 ft 465 kts 129°
2026-05-04 22:18 -32.14721 -62.97697 28729 ft 467 kts 129°
2026-05-04 22:18 -32.16710 -62.94723 29038 ft 469 kts 129°
2026-05-04 22:18 -32.18739 -62.91687 29353 ft 472 kts 129°
2026-05-04 22:18 -32.20766 -62.88654 29653 ft 474 kts 129°
2026-05-04 22:19 -32.22818 -62.85579 29955 ft 476 kts 129°
2026-05-04 22:19 -32.24860 -62.82519 30252 ft 478 kts 129°
2026-05-04 22:19 -32.26918 -62.79431 30535 ft 481 kts 129°
2026-05-04 22:19 -32.28992 -62.76317 30850 ft 482 kts 129°
2026-05-04 22:20 -32.31066 -62.73203 31226 ft 482 kts 129°
2026-05-04 22:20 -32.33114 -62.70123 31585 ft 482 kts 129°
2026-05-04 22:20 -32.35191 -62.66998 31958 ft 481 kts 129°
2026-05-04 22:20 -32.37250 -62.63897 32316 ft 480 kts 129°
2026-05-04 22:21 -32.39294 -62.60817 32662 ft 480 kts 129°
2026-05-04 22:21 -32.41339 -62.57732 32998 ft 479 kts 129°
2026-05-04 22:21 -32.43404 -62.54614 33328 ft 479 kts 129°
2026-05-04 22:21 -32.45442 -62.51536 33640 ft 478 kts 129°
2026-05-04 22:22 -32.47479 -62.48456 33945 ft 478 kts 129°
2026-05-04 22:22 -32.49548 -62.45324 34254 ft 477 kts 129°
2026-05-04 22:22 -32.51590 -62.42231 34552 ft 476 kts 129°
2026-05-04 22:22 -32.53605 -62.39177 34840 ft 475 kts 129°
2026-05-04 22:23 -32.55657 -62.36064 35002 ft 477 kts 129°
2026-05-04 22:23 -32.59777 -62.29810 34993 ft 473 kts 129°
2026-05-04 22:24 -32.63786 -62.23714 34994 ft 471 kts 129°
2026-05-04 22:24 -32.67806 -62.17591 34994 ft 473 kts 128°
2026-05-04 22:25 -32.71615 -62.11200 34994 ft 474 kts 125°
2026-05-04 22:25 -32.75348 -62.04733 34993 ft 474 kts 125°
2026-05-04 22:26 -32.79076 -61.98306 34993 ft 473 kts 126°
2026-05-04 22:26 -32.82790 -61.91918 34993 ft 473 kts 126°
2026-05-04 22:27 -32.86530 -61.85487 34993 ft 473 kts 126°
2026-05-04 22:27 -32.90274 -61.79046 34993 ft 473 kts 126°
2026-05-04 22:28 -32.94019 -61.72596 34993 ft 473 kts 126°
2026-05-04 22:28 -32.97762 -61.66141 34993 ft 473 kts 126°
2026-05-04 22:29 -33.01508 -61.59669 34993 ft 473 kts 126°
2026-05-04 22:29 -33.05228 -61.53232 34993 ft 473 kts 126°
2026-05-04 22:30 -33.08948 -61.46785 34993 ft 473 kts 126°
2026-05-04 22:30 -33.12688 -61.40292 34993 ft 473 kts 126°
2026-05-04 22:31 -33.16413 -61.33815 34993 ft 473 kts 125°
2026-05-04 22:31 -33.20120 -61.27361 34993 ft 473 kts 125°
2026-05-04 22:32 -33.23842 -61.20870 34993 ft 473 kts 125°
2026-05-04 22:32 -33.27539 -61.14408 34993 ft 473 kts 125°
2026-05-04 22:33 -33.31221 -61.07892 34993 ft 473 kts 124°
2026-05-04 22:33 -33.34874 -61.01354 34993 ft 473 kts 124°
2026-05-04 22:34 -33.38516 -60.94851 34993 ft 473 kts 124°
2026-05-04 22:34 -33.42182 -60.88299 34993 ft 473 kts 124°
2026-05-04 22:35 -33.45851 -60.81750 34993 ft 473 kts 125°
2026-05-04 22:35 -33.49526 -60.75189 34993 ft 473 kts 125°
2026-05-04 22:36 -33.53195 -60.68626 34992 ft 474 kts 123°
2026-05-04 22:36 -33.56330 -60.61719 34979 ft 474 kts 117°
2026-05-04 22:36 -33.57799 -60.58243 34733 ft 468 kts 117°
2026-05-04 22:37 -33.59253 -60.54792 34479 ft 462 kts 117°
2026-05-04 22:37 -33.60704 -60.51341 34231 ft 460 kts 117°
2026-05-04 22:37 -33.62153 -60.47894 33990 ft 462 kts 117°
2026-05-04 22:37 -33.63600 -60.44447 33745 ft 465 kts 117°
2026-05-04 22:38 -33.65061 -60.40965 33493 ft 466 kts 117°
2026-05-04 22:38 -33.66507 -60.37515 33238 ft 465 kts 117°
2026-05-04 22:38 -33.67977 -60.34002 32848 ft 474 kts 117°
2026-05-04 22:38 -33.69496 -60.30372 32187 ft 492 kts 117°
2026-05-04 22:39 -33.71063 -60.26627 31360 ft 506 kts 116°
2026-05-04 22:39 -33.72641 -60.22847 30668 ft 502 kts 116°
2026-05-04 22:39 -33.74197 -60.19117 30016 ft 488 kts 116°
2026-05-04 22:39 -33.75689 -60.15535 29364 ft 475 kts 116°
2026-05-04 22:40 -33.77185 -60.11941 28699 ft 464 kts 116°
2026-05-04 22:40 -33.78597 -60.08544 28048 ft 453 kts 116°
2026-05-04 22:40 -33.79982 -60.05208 27399 ft 444 kts 116°
2026-05-04 22:40 -33.81344 -60.01926 26730 ft 435 kts 116°
2026-05-04 22:41 -33.82668 -59.98731 26036 ft 428 kts 116°
2026-05-04 22:41 -33.83989 -59.95542 25332 ft 422 kts 116°
2026-05-04 22:41 -33.85281 -59.92417 24628 ft 416 kts 116°
2026-05-04 22:41 -33.86544 -59.89360 23890 ft 411 kts 116°
2026-05-04 22:42 -33.87809 -59.86296 23138 ft 407 kts 116°
2026-05-04 22:42 -33.89051 -59.83287 22395 ft 402 kts 116°
2026-05-04 22:42 -33.90288 -59.80283 21652 ft 398 kts 116°
2026-05-04 22:42 -33.91501 -59.77339 21142 ft 388 kts 116°
2026-05-04 22:43 -33.92688 -59.74451 20909 ft 385 kts 116°
2026-05-04 22:43 -33.93866 -59.71585 20650 ft 386 kts 116°
2026-05-04 22:43 -33.95057 -59.68682 20394 ft 385 kts 116°
2026-05-04 22:43 -33.96241 -59.65797 20056 ft 382 kts 116°
2026-05-04 22:44 -33.97403 -59.62962 19574 ft 381 kts 116°
2026-05-04 22:44 -33.98576 -59.60096 19068 ft 382 kts 116°
2026-05-04 22:44 -33.99748 -59.57228 18550 ft 382 kts 116°
2026-05-04 22:44 -34.00947 -59.54389 17954 ft 385 kts 118°
2026-05-04 22:45 -34.02289 -59.51524 16991 ft 395 kts 120°
2026-05-04 22:45 -34.04977 -59.45916 15569 ft 383 kts 120°
2026-05-04 22:45 -34.06321 -59.43116 15079 ft 381 kts 120°
2026-05-04 22:46 -34.07620 -59.40405 14601 ft 370 kts 120°
2026-05-04 22:46 -34.08879 -59.37774 14155 ft 356 kts 120°
2026-05-04 22:46 -34.10097 -59.35230 13705 ft 345 kts 120°
2026-05-04 22:46 -34.11264 -59.32790 13260 ft 335 kts 120°
2026-05-04 22:47 -34.12416 -59.30380 12807 ft 326 kts 120°
2026-05-04 22:47 -34.13540 -59.28027 12353 ft 318 kts 120°
2026-05-04 22:47 -34.14625 -59.25755 11904 ft 311 kts 120°
2026-05-04 22:47 -34.15682 -59.23538 11456 ft 304 kts 120°
2026-05-04 22:48 -34.16722 -59.21357 11008 ft 299 kts 120°
2026-05-04 22:48 -34.17750 -59.19197 10556 ft 294 kts 120°
2026-05-04 22:48 -34.18755 -59.17088 10107 ft 289 kts 120°
2026-05-04 22:48 -34.19760 -59.14975 9651 ft 285 kts 120°
2026-05-04 22:49 -34.20740 -59.12915 9200 ft 281 kts 120°
2026-05-04 22:49 -34.21704 -59.10886 8761 ft 277 kts 120°
2026-05-04 22:49 -34.22651 -59.08892 8408 ft 272 kts 120°
2026-05-04 22:49 -34.23588 -59.06918 8062 ft 266 kts 120°
2026-05-04 22:50 -34.24480 -59.05036 7835 ft 257 kts 120°
2026-05-04 22:50 -34.25369 -59.03162 7636 ft 255 kts 119°
2026-05-04 22:50 -34.26243 -59.01317 7448 ft 256 kts 119°
2026-05-04 22:50 -34.27137 -58.99427 7254 ft 255 kts 119°
2026-05-04 22:51 -34.28012 -58.97579 7065 ft 254 kts 119°
2026-05-04 22:51 -34.28900 -58.95701 6874 ft 254 kts 119°
2026-05-04 22:51 -34.29765 -58.93870 6742 ft 251 kts 119°
2026-05-04 22:51 -34.30631 -58.92036 6549 ft 253 kts 119°
2026-05-04 22:52 -34.31502 -58.90192 6347 ft 252 kts 119°
2026-05-04 22:52 -34.32368 -58.88354 6141 ft 251 kts 119°
2026-05-04 22:52 -34.33231 -58.86524 5948 ft 250 kts 119°
2026-05-04 22:52 -34.34087 -58.84708 5757 ft 249 kts 119°
2026-05-04 22:53 -34.34951 -58.82873 5564 ft 249 kts 119°
2026-05-04 22:53 -34.35795 -58.81081 5361 ft 241 kts 119°
2026-05-04 22:53 -34.36607 -58.79355 5149 ft 228 kts 119°
2026-05-04 22:53 -34.37374 -58.77723 4965 ft 224 kts 119°
2026-05-04 22:54 -34.38146 -58.76080 4785 ft 223 kts 119°
2026-05-04 22:54 -34.38911 -58.74451 4603 ft 224 kts 119°
2026-05-04 22:54 -34.39675 -58.72820 4419 ft 223 kts 119°
2026-05-04 22:54 -34.40443 -58.71185 4228 ft 220 kts 119°
2026-05-04 22:55 -34.41174 -58.69624 4049 ft 210 kts 119°
2026-05-04 22:55 -34.41896 -58.68083 3859 ft 209 kts 119°
2026-05-04 22:55 -34.42614 -58.66547 3675 ft 209 kts 119°
2026-05-04 22:55 -34.43330 -58.65016 3489 ft 209 kts 119°
2026-05-04 22:56 -34.44046 -58.63485 3340 ft 207 kts 119°
2026-05-04 22:56 -34.44747 -58.61984 3132 ft 203 kts 119°
2026-05-04 22:56 -34.45428 -58.60523 3050 ft 191 kts 119°
2026-05-04 22:56 -34.46099 -58.59096 3094 ft 198 kts 121°
2026-05-04 22:57 -34.46856 -58.57712 3008 ft 200 kts 125°
2026-05-04 22:57 -34.47642 -58.56354 2658 ft 188 kts 125°
2026-05-04 22:57 -34.48355 -58.55104 2585 ft 181 kts 124°
2026-05-04 22:57 -34.49058 -58.53856 2227 ft 172 kts 124°
2026-05-04 22:58 -34.49692 -58.52723 1926 ft 158 kts 124°
2026-05-04 22:58 -34.50317 -58.51618 1594 ft 158 kts 124°
2026-05-04 22:58 -34.50930 -58.50499 1237 ft 161 kts 124°
2026-05-04 22:58 -34.51550 -58.49376 1044 ft 161 kts 124°
2026-05-04 22:59 -34.52179 -58.48244 937 ft 161 kts 124°
2026-05-04 22:59 -34.52804 -58.47127 836 ft 160 kts 124°
2026-05-04 22:59 -34.53434 -58.46004 679 ft 161 kts 124°
2026-05-04 22:59 -34.54066 -58.44886 502 ft 161 kts 125°
2026-05-04 23:00 -34.54698 -58.43761 301 ft 161 kts 124°
2026-05-04 23:00 -34.55321 -58.42644 73 ft 159 kts 124°
2026-05-04 23:00 -34.55902 -58.41597 35 ft 149 kts 124°
2026-05-04 23:00 -34.56495 -58.40465 401 ft 169 kts 122°
2026-05-04 23:01 -34.57189 -58.39146 833 ft 197 kts 126°
2026-05-04 23:01 -34.57974 -58.37846 1842 ft 192 kts 126°
2026-05-04 23:01 -34.58488 -58.36284 1927 ft 218 kts 92°
2026-05-04 23:01 -34.58374 -58.34387 2392 ft 226 kts 83°
2026-05-04 23:02 -34.58293 -58.32442 2878 ft 238 kts 90°
2026-05-04 23:02 -34.58380 -58.30385 3040 ft 248 kts 94°
2026-05-04 23:02 -34.58537 -58.28335 3016 ft 239 kts 95°
2026-05-04 23:02 -34.58696 -58.26344 3073 ft 237 kts 95°
2026-05-04 23:03 -34.58853 -58.24321 3318 ft 248 kts 95°
2026-05-04 23:03 -34.58785 -58.22224 3548 ft 252 kts 71°
2026-05-04 23:03 -34.57985 -58.20355 3881 ft 250 kts 54°
2026-05-04 23:03 -34.56929 -58.18642 4182 ft 253 kts 51°
2026-05-04 23:04 -34.55850 -58.16984 4472 ft 253 kts 50°
2026-05-04 23:04 -34.54534 -58.15576 4740 ft 252 kts 24°
2026-05-04 23:04 -34.52866 -58.15135 5027 ft 252 kts 356°
2026-05-04 23:04 -34.51183 -58.15717 4881 ft 248 kts 328°
2026-05-04 23:05 -34.50008 -58.17096 4601 ft 233 kts 306°
2026-05-04 23:05 -34.49157 -58.18710 4317 ft 220 kts 301°
2026-05-04 23:05 -34.48393 -58.20277 4034 ft 214 kts 300°
2026-05-04 23:05 -34.47637 -58.21843 3783 ft 212 kts 300°
2026-05-04 23:06 -34.46901 -58.23366 3518 ft 205 kts 300°
2026-05-04 23:06 -34.46184 -58.24851 3263 ft 201 kts 300°
2026-05-04 23:06 -34.45488 -58.26292 3105 ft 197 kts 300°
2026-05-04 23:06 -34.44812 -58.27792 3080 ft 201 kts 294°
2026-05-04 23:07 -34.44276 -58.29351 3066 ft 201 kts 291°
2026-05-04 23:07 -34.43765 -58.30935 3071 ft 200 kts 291°
2026-05-04 23:07 -34.43254 -58.32525 3074 ft 201 kts 291°
2026-05-04 23:07 -34.42748 -58.34104 3072 ft 201 kts 291°
2026-05-04 23:08 -34.42372 -58.35737 3058 ft 201 kts 275°
2026-05-04 23:08 -34.42411 -58.37417 3124 ft 200 kts 265°
2026-05-04 23:08 -34.42570 -58.39111 3057 ft 198 kts 263°
2026-05-04 23:08 -34.42748 -58.40717 3100 ft 186 kts 258°
2026-05-04 23:09 -34.43323 -58.42118 3014 ft 185 kts 229°
2026-05-04 23:09 -34.44289 -58.43081 2881 ft 175 kts 215°
2026-05-04 23:09 -34.45290 -58.43878 2729 ft 170 kts 213°
2026-05-04 23:09 -34.46272 -58.44640 2528 ft 165 kts 213°
2026-05-04 23:10 -34.47237 -58.45388 2404 ft 165 kts 213°
2026-05-04 23:10 -34.48201 -58.46135 2283 ft 166 kts 212°
2026-05-04 23:10 -34.49205 -58.46839 2136 ft 166 kts 210°
2026-05-04 23:10 -34.50238 -58.47462 1996 ft 165 kts 196°
2026-05-04 23:11 -34.51377 -58.47509 1866 ft 166 kts 169°
2026-05-04 23:11 -34.52443 -58.47071 1637 ft 168 kts 150°
2026-05-04 23:11 -34.53329 -58.46157 1399 ft 165 kts 125°
2026-05-04 23:11 -34.53938 -58.44985 967 ft 166 kts 121°
2026-05-04 23:12 -34.54601 -58.43874 448 ft 161 kts 127°
2026-05-04 23:12 -34.55243 -58.42788 52 ft 154 kts 123°
2026-05-04 23:12 -34.55757 -58.41870 27 ft 102 kts 125°
2026-05-04 23:12 -34.56052 -58.41342 27 ft 54 kts 127°
2026-05-04 23:13 -34.56188 -58.41081 27 ft 13 kts 86°
2026-05-04 23:13 -34.56172 -58.41013 27 ft 0 kts 63°
2026-05-04 23:15 -34.56171 -58.41011 27 ft 1 kts 63°
2026-05-04 23:16 -34.56155 -58.40980 27 ft 6 kts 39°
2026-05-04 23:16 -34.56105 -58.41003 27 ft 11 kts 309°
2026-05-04 23:16 -34.56047 -58.41095 27 ft 15 kts 308°
2026-05-04 23:16 -34.55989 -58.41188 27 ft 12 kts 306°
2026-05-04 23:17 -34.55944 -58.41262 27 ft 9 kts 307°
2026-05-04 23:17 -34.55901 -58.41296 27 ft 5 kts
2026-05-04 23:17 -34.55882 -58.41289 27 ft 0 kts 19°
2026-05-04 23:17 -34.55878 -58.41288 27 ft 1 kts
2026-05-04 23:18 -34.55846 -58.41291 27 ft 8 kts 343°
2026-05-04 23:18 -34.55807 -58.41335 27 ft 5 kts 313°
2026-05-04 23:18 -34.55788 -58.41339 27 ft 1 kts 15°
2026-05-04 23:18 -34.55782 -58.41337 27 ft 1 kts 21°
2026-05-04 23:19 -34.55771 -58.41330 27 ft 2 kts 29°
2026-05-04 23:19 -34.55763 -58.41324 27 ft 0 kts 31°